| time (UTC) | temp F | wind direction | speed MPH | gust MPH | rain 1hr in | rain 24hr in | rain mn in | humidity % | barometer mb |
| 20260906224508 | 76 | 240 | 7.0 | 12.0 | 0.00 | 0.00 | 0.00 | 24 | 1003.7 |
| 20260906223010 | 76 | 225 | 6.0 | 16.0 | 0.00 | 0.00 | 0.00 | 24 | 1003.6 |
| 20260906221508 | 76 | 218 | 9.0 | 15.0 | 0.00 | 0.00 | 0.00 | 23 | 1003.6 |
| 20260906220004 | 76 | 221 | 5.0 | 12.0 | 0.00 | 0.00 | 0.00 | 23 | 1003.7 |
| 20260906214542 | 76 | 225 | 8.0 | 19.0 | 0.00 | 0.00 | 0.00 | 23 | 1003.7 |
| 20260906213032 | 77 | 226 | 6.0 | 15.0 | 0.00 | 0.00 | 0.00 | 22 | 1003.8 |
| 20260906211529 | 76 | 211 | 9.0 | 20.0 | 0.00 | 0.00 | 0.00 | 22 | 1004.0 |
| 20260906210028 | 76 | 231 | 6.0 | 18.0 | 0.00 | 0.00 | 0.00 | 25 | 1004.4 |
| 20260906204525 | 76 | 216 | 13.0 | 20.0 | 0.00 | 0.00 | 0.00 | 24 | 1004.4 |
| 20260906203033 | 77 | 225 | 8.0 | 16.0 | 0.00 | 0.00 | 0.00 | 24 | 1004.6 |
| 20260906201538 | 76 | 187 | 9.0 | 18.0 | 0.00 | 0.00 | 0.00 | 25 | 1004.5 |
| 20260906200021 | 77 | 246 | 9.0 | 18.0 | 0.00 | 0.00 | 0.00 | 24 | 1004.5 |
| 20260906194522 | 77 | 196 | 10.0 | 17.0 | 0.00 | 0.00 | 0.00 | 22 | 1004.8 |
| 20260906194520 | 77 | 194 | 10.0 | 17.0 | 0.00 | 0.00 | 0.00 | 22 | 1004.8 |
| 20260906193019 | 76 | 168 | 3.0 | 13.0 | 0.00 | 0.00 | 0.00 | 22 | 1004.7 |
| 20260906191516 | 76 | 190 | 4.0 | 11.0 | 0.00 | 0.00 | 0.00 | 23 | 1005.0 |
| 20260906190012 | 76 | 254 | 4.0 | 23.0 | 0.00 | 0.00 | 0.00 | 22 | 1005.4 |
| 20260906184508 | 75 | 251 | 11.0 | 23.0 | 0.00 | 0.00 | 0.00 | 21 | 1005.9 |
| 20260906183008 | 75 | 223 | 10.0 | 17.0 | 0.00 | 0.00 | 0.00 | 21 | 1006.0 |
| 20260906181512 | 74 | 217 | 8.0 | 15.0 | 0.00 | 0.00 | 0.00 | 24 | 1006.2 |
| 20260906180121 | 74 | 227 | 4.0 | 16.0 | 0.00 | 0.00 | 0.00 | 25 | 1006.4 |
| 20260906174620 | 73 | 265 | 5.0 | 12.0 | 0.00 | 0.00 | 0.00 | 25 | 1006.6 |
| 20260906173056 | 75 | 226 | 7.0 | 21.0 | 0.00 | 0.00 | 0.00 | 23 | 1006.9 |
| 20260906171610 | 77 | 278 | 0.0 | 0.0 | 0.00 | 0.00 | 0.00 | 30 | 1007.1 |
| 20260906170057 | 74 | 313 | 0.0 | 0.0 | 0.00 | 0.00 | 0.00 | 31 | 1007.4 |
| 20260906164547 | 73 | 44 | 0.0 | 0.0 | 0.00 | 0.00 | 0.00 | 31 | 1007.6 |
| 20260906163044 | 73 | 44 | 0.0 | 0.0 | 0.00 | 0.00 | 0.00 | 33 | 1007.9 |
| 20260906161554 | 71 | 44 | 0.0 | 0.0 | 0.00 | 0.00 | 0.00 | 34 | 1008.0 |
| 20260906160007 | 69 | 102 | 0.0 | 0.0 | 0.00 | 0.00 | 0.00 | 33 | 1008.3 |
| 20260906154503 | 65 | 188 | 0.0 | 0.0 | 0.00 | 0.00 | 0.00 | 35 | 1008.5 |
| 20260906153110 | 63 | 188 | 0.0 | 0.0 | 0.00 | 0.00 | 0.00 | 39 | 1008.7 |
| 20260906151551 | 57 | 188 | 0.0 | 0.0 | 0.00 | 0.00 | 0.00 | 46 | 1008.7 |
| 20260906150049 | 53 | 215 | 0.0 | 0.0 | 0.00 | 0.00 | 0.00 | 50 | 1008.8 |
| 20260906144550 | 51 | 178 | 0.0 | 0.0 | 0.00 | 0.00 | 0.00 | 55 | 1008.9 |
| 20260906143045 | 49 | 178 | 0.0 | 0.0 | 0.00 | 0.00 | 0.00 | 59 | 1008.9 |
| 20260906141559 | 47 | 174 | 0.0 | 0.0 | 0.00 | 0.00 | 0.00 | 62 | 1008.8 |
| 20260906140044 | 46 | 171 | 0.0 | 0.0 | 0.00 | 0.00 | 0.00 | 62 | 1008.8 |
| 20260906134547 | 46 | 170 | 0.0 | 0.0 | 0.00 | 0.00 | 0.00 | 63 | 1008.7 |
| 20260906133044 | 46 | 170 | 0.0 | 0.0 | 0.00 | 0.00 | 0.00 | 61 | 1008.6 |
| 20260906131553 | 46 | 170 | 0.0 | 0.0 | 0.00 | 0.00 | 0.00 | 63 | 1008.5 |
| 20260906130051 | 46 | 170 | 0.0 | 0.0 | 0.00 | 0.00 | 0.00 | 63 | 1008.3 |
| 20260906124535 | 47 | 170 | 0.0 | 0.0 | 0.00 | 0.00 | 0.00 | 62 | 1008.1 |
| 20260906123035 | 46 | 170 | 0.0 | 0.0 | 0.00 | 0.00 | 0.00 | 64 | 1007.8 |
| 20260906121536 | 46 | 170 | 0.0 | 0.0 | 0.00 | 0.00 | 0.00 | 62 | 1007.8 |
| 20260906120029 | 46 | 170 | 0.0 | 0.0 | 0.00 | 0.00 | 0.00 | 61 | 1007.6 |
| 20260906114532 | 47 | 121 | 0.0 | 0.0 | 0.00 | 0.00 | 0.00 | 62 | 1007.6 |
| 20260906113025 | 47 | 58 | 0.0 | 0.0 | 0.00 | 0.00 | 0.00 | 63 | 1007.7 |
| 20260906111520 | 49 | 58 | 0.0 | 0.0 | 0.00 | 0.00 | 0.00 | 60 | 1007.7 |
| 20260906110016 | 50 | 58 | 0.0 | 0.0 | 0.00 | 0.00 | 0.00 | 57 | 1007.6 |
| 20260906104515 | 51 | 58 | 0.0 | 0.0 | 0.00 | 0.00 | 0.00 | 57 | 1007.5 |
| 20260906103015 | 51 | 58 | 0.0 | 0.0 | 0.00 | 0.00 | 0.00 | 55 | 1007.6 |
| 20260906101512 | 51 | 202 | 0.0 | 0.0 | 0.00 | 0.00 | 0.00 | 55 | 1007.4 |
| 20260906100018 | 51 | 202 | 0.0 | 0.0 | 0.00 | 0.00 | 0.00 | 53 | 1007.3 |
| 20260906094510 | 50 | 192 | 0.0 | 5.0 | 0.00 | 0.00 | 0.00 | 56 | 1007.3 |
| 20260906093006 | 50 | 219 | 0.0 | 0.0 | 0.00 | 0.00 | 0.00 | 55 | 1007.2 |
| 20260906091505 | 50 | 219 | 0.0 | 0.0 | 0.00 | 0.00 | 0.00 | 55 | 1007.2 |
| 20260906090002 | 51 | 219 | 0.0 | 0.0 | 0.00 | 0.00 | 0.00 | 53 | 1007.2 |
| 20260906084600 | 52 | 219 | 0.0 | 0.0 | 0.00 | 0.00 | 0.00 | 51 | 1007.2 |
| 20260906083102 | 53 | 219 | 0.0 | 0.0 | 0.00 | 0.00 | 0.00 | 49 | 1007.1 |
| 20260906081555 | 53 | 219 | 0.0 | 0.0 | 0.00 | 0.00 | 0.00 | 52 | 1007.1 |
| 20260906080055 | 54 | 219 | 0.0 | 0.0 | 0.00 | 0.00 | 0.00 | 51 | 1007.2 |
| 20260906074554 | 53 | 219 | 0.0 | 0.0 | 0.00 | 0.00 | 0.00 | 53 | 1007.3 |
| 20260906073052 | 53 | 219 | 0.0 | 0.0 | 0.00 | 0.00 | 0.00 | 50 | 1007.2 |
| 20260906071548 | 53 | 219 | 0.0 | 0.0 | 0.00 | 0.00 | 0.00 | 49 | 1007.0 |
| 20260906070045 | 54 | 220 | 0.0 | 0.0 | 0.00 | 0.00 | 0.00 | 47 | 1007.0 |
| 20260906064544 | 54 | 220 | 0.0 | 0.0 | 0.00 | 0.00 | 0.00 | 48 | 1007.0 |
| 20260906063043 | 54 | 220 | 0.0 | 1.0 | 0.00 | 0.00 | 0.00 | 48 | 1007.1 |
| 20260906061511 | 55 | 259 | 0.0 | 0.0 | 0.00 | 0.00 | 0.00 | 46 | 1007.1 |
| 20260906060008 | 54 | 186 | 0.0 | 0.0 | 0.00 | 0.00 | 0.00 | 49 | 1007.1 |
| 20260906054503 | 55 | 215 | 0.0 | 0.0 | 0.00 | 0.00 | 0.00 | 47 | 1006.9 |
| 20260906053003 | 56 | 215 | 0.0 | 1.0 | 0.00 | 0.00 | 0.00 | 47 | 1007.0 |
| 20260906051501 | 59 | 198 | 0.0 | 0.0 | 0.00 | 0.00 | 0.00 | 42 | 1006.9 |
| 20260906050001 | 60 | 71 | 0.0 | 9.0 | 0.00 | 0.00 | 0.00 | 36 | 1007.0 |
| 20260906044559 | 60 | 242 | 0.0 | 3.0 | 0.00 | 0.00 | 0.00 | 40 | 1007.1 |
| 20260906043059 | 64 | 175 | 1.0 | 11.0 | 0.00 | 0.00 | 0.00 | 31 | 1006.9 |
| 20260906041559 | 65 | 121 | 0.0 | 14.0 | 0.00 | 0.00 | 0.00 | 30 | 1007.0 |
| 20260906040058 | 64 | 109 | 1.0 | 9.0 | 0.00 | 0.00 | 0.00 | 31 | 1006.9 |
| 20260906034628 | 62 | 215 | 0.0 | 0.0 | 0.00 | 0.00 | 0.00 | 35 | 1007.0 |
| 20260906033031 | 63 | 215 | 0.0 | 0.0 | 0.00 | 0.00 | 0.00 | 35 | 1006.9 |
| 20260906031529 | 65 | 215 | 0.0 | 5.0 | 0.00 | 0.00 | 0.00 | 33 | 1006.8 |
| 20260906030025 | 67 | 56 | 1.0 | 10.0 | 0.00 | 0.00 | 0.00 | 28 | 1006.5 |
| 20260906024523 | 68 | 88 | 2.0 | 9.0 | 0.00 | 0.00 | 0.00 | 27 | 1006.3 |
| 20260906023028 | 67 | 81 | 0.0 | 2.0 | 0.00 | 0.00 | 0.00 | 28 | 1006.0 |
| 20260906021520 | 69 | 42 | 0.0 | 0.0 | 0.00 | 0.00 | 0.00 | 29 | 1005.8 |
| 20260906020020 | 71 | 271 | 0.0 | 0.0 | 0.00 | 0.00 | 0.00 | 25 | 1005.7 |
| 20260906014519 | 73 | 222 | 0.0 | 0.0 | 0.00 | 0.00 | 0.00 | 25 | 1005.6 |
| 20260906013019 | 74 | 219 | 0.0 | 0.0 | 0.00 | 0.00 | 0.00 | 23 | 1005.4 |
| 20260906011516 | 75 | 220 | 0.0 | 0.0 | 0.00 | 0.00 | 0.00 | 23 | 1005.4 |
| 20260906010015 | 76 | 212 | 1.0 | 9.0 | 0.00 | 0.00 | 0.00 | 21 | 1005.4 |
| 20260906004515 | 77 | 228 | 6.0 | 15.0 | 0.00 | 0.00 | 0.00 | 17 | 1005.3 |
| 20260906003015 | 78 | 242 | 10.0 | 17.0 | 0.00 | 0.00 | 0.00 | 17 | 1005.3 |
| 20260906001519 | 78 | 223 | 4.0 | 20.0 | 0.00 | 0.00 | 0.00 | 17 | 1005.2 |
| 20260906000012 | 78 | 236 | 3.0 | 11.0 | 0.00 | 0.00 | 0.00 | 18 | 1005.4 |
| 20260905234511 | 79 | 262 | 5.0 | 11.0 | 0.00 | 0.00 | 0.00 | 17 | 1005.3 |
| 20260905233014 | 79 | 231 | 8.0 | 17.0 | 0.00 | 0.00 | 0.00 | 16 | 1005.4 |
| 20260905231512 | 79 | 237 | 8.0 | 16.0 | 0.00 | 0.00 | 0.00 | 16 | 1005.4 |
| 20260905230006 | 79 | 258 | 5.0 | 13.0 | 0.00 | 0.00 | 0.00 | 17 | 1005.3 |